TimeCDT,TemperatureF,Dew PointF,Humidity,Sea Level PressureIn,VisibilityMPH,Wind Direction,Wind SpeedMPH,Gust SpeedMPH,PrecipitationIn,Events,Conditions,WindDirDegrees,DateUTC
12:15 AM,1.4,-5.8,72,30.20,10.0,WNW,13.8,20.7,N/A,,Clear,300,2013-03-20 05:15:00
12:35 AM,1.4,-5.8,72,30.20,10.0,WNW,10.4,17.3,N/A,,Clear,290,2013-03-20 05:35:00
12:53 AM,1.4,-5.8,72,30.19,10.0,WNW,13.8,18.4,N/A,,Clear,290,2013-03-20 05:53:00
1:15 AM,1.4,-5.8,72,30.19,10.0,WNW,11.5,18.4,N/A,,Clear,300,2013-03-20 06:15:00
1:34 AM,1.4,-5.8,72,30.19,10.0,WNW,13.8,19.6,N/A,,Clear,290,2013-03-20 06:34:00
1:53 AM,-0.4,-5.8,78,30.20,10.0,WNW,12.7,-,N/A,,Clear,300,2013-03-20 06:53:00
2:15 AM,-0.4,-5.8,78,30.19,10.0,WNW,16.1,-,N/A,,Clear,300,2013-03-20 07:15:00
2:35 AM,-0.4,-5.8,78,30.20,10.0,WNW,16.1,23.0,N/A,,Clear,300,2013-03-20 07:35:00
2:52 AM,-0.4,-5.8,78,30.20,10.0,WNW,15.0,24.2,N/A,,Clear,300,2013-03-20 07:52:00
3:14 AM,-0.4,-7.6,72,30.20,10.0,WNW,13.8,18.4,N/A,,Clear,300,2013-03-20 08:14:00
3:35 AM,-0.4,-7.6,72,30.20,10.0,WNW,13.8,-,N/A,,Clear,300,2013-03-20 08:35:00
3:53 AM,-0.4,-7.6,72,30.19,10.0,WNW,15.0,-,N/A,,Clear,300,2013-03-20 08:53:00
4:15 AM,-0.4,-7.6,72,30.20,10.0,WNW,16.1,23.0,N/A,,Clear,300,2013-03-20 09:15:00
4:35 AM,-0.4,-7.6,72,30.20,10.0,WNW,13.8,21.9,N/A,,Clear,300,2013-03-20 09:35:00
4:53 AM,-0.4,-7.6,72,30.20,10.0,WNW,13.8,-,N/A,,Clear,300,2013-03-20 09:53:00
5:14 AM,-0.4,-7.6,72,30.20,10.0,WNW,15.0,23.0,N/A,,Clear,300,2013-03-20 10:14:00
5:34 AM,-2.2,-7.6,78,30.20,10.0,WNW,16.1,-,N/A,,Clear,300,2013-03-20 10:34:00
5:53 AM,-0.4,-7.6,72,30.20,10.0,WNW,15.0,21.9,N/A,,Clear,300,2013-03-20 10:53:00
6:15 AM,-2.2,-7.6,78,30.21,10.0,NW,13.8,-,N/A,,Clear,310,2013-03-20 11:15:00
6:35 AM,-2.2,-7.6,78,30.21,10.0,WNW,12.7,-,N/A,,Clear,300,2013-03-20 11:35:00
6:53 AM,-2.2,-9.4,71,30.21,10.0,WNW,10.4,-,N/A,,Clear,290,2013-03-20 11:53:00
7:15 AM,-2.2,-9.4,71,30.21,10.0,WNW,11.5,18.4,N/A,,Clear,300,2013-03-20 12:15:00
7:35 AM,-2.2,-9.4,71,30.21,10.0,WNW,15.0,-,N/A,,Clear,300,2013-03-20 12:35:00
7:53 AM,-2.2,-9.4,71,30.22,10.0,WNW,12.7,-,N/A,,Clear,300,2013-03-20 12:53:00
8:14 AM,-2.2,-9.4,71,30.21,10.0,WNW,11.5,17.3,N/A,,Clear,300,2013-03-20 13:14:00
8:35 AM,-2.2,-9.4,71,30.21,10.0,WNW,15.0,18.4,N/A,,Clear,300,2013-03-20 13:35:00
8:53 AM,-0.4,-9.4,66,30.21,10.0,WNW,17.3,-,N/A,,Clear,300,2013-03-20 13:53:00
9:15 AM,-0.4,-9.4,66,30.21,10.0,WNW,13.8,-,N/A,,Clear,300,2013-03-20 14:15:00
9:35 AM,-0.4,-7.6,72,30.20,10.0,NW,17.3,23.0,N/A,,Clear,310,2013-03-20 14:35:00
9:53 AM,1.4,-7.6,66,30.20,10.0,WNW,12.7,-,N/A,,Clear,300,2013-03-20 14:53:00
10:15 AM,3.2,-7.6,61,30.20,10.0,WNW,12.7,18.4,N/A,,Clear,300,2013-03-20 15:15:00
10:52 AM,6.8,-5.8,56,30.18,10.0,NW,18.4,25.3,N/A,,Clear,310,2013-03-20 15:52:00
11:15 AM,6.8,-4.0,61,30.18,10.0,NW,17.3,23.0,N/A,,Clear,310,2013-03-20 16:15:00
11:34 AM,8.6,-4.0,57,30.18,7.0,NW,18.4,28.8,N/A,,Clear,310,2013-03-20 16:34:00
11:53 AM,8.6,-4.0,57,30.17,10.0,NW,16.1,24.2,N/A,,Clear,310,2013-03-20 16:53:00
12:11 PM,8.6,-2.2,62,30.17,10.0,NW,19.6,24.2,N/A,,Clear,310,2013-03-20 17:11:00
12:35 PM,10.4,-2.2,57,30.17,10.0,WNW,16.1,24.2,N/A,,Clear,300,2013-03-20 17:35:00
12:52 PM,10.4,-2.2,57,30.16,10.0,WNW,18.4,27.6,N/A,,Clear,300,2013-03-20 17:52:00
1:15 PM,10.4,-2.2,57,30.16,10.0,NW,17.3,24.2,N/A,,Clear,310,2013-03-20 18:15:00
1:35 PM,10.4,-2.2,57,30.15,10.0,NW,18.4,24.2,N/A,,Clear,320,2013-03-20 18:35:00
1:53 PM,10.4,-2.2,57,30.15,10.0,WNW,20.7,26.5,N/A,,Clear,300,2013-03-20 18:53:00
2:15 PM,10.4,-2.2,57,30.14,7.0,WNW,23.0,27.6,N/A,,Clear,300,2013-03-20 19:15:00
2:35 PM,12.2,-0.4,57,30.13,10.0,NW,19.6,-,N/A,,Clear,310,2013-03-20 19:35:00
2:52 PM,12.2,-0.4,57,30.13,10.0,NW,20.7,26.5,N/A,,Clear,310,2013-03-20 19:52:00
3:14 PM,12.2,-0.4,57,30.13,7.0,NW,20.7,24.2,N/A,,Clear,320,2013-03-20 20:14:00
3:34 PM,12.2,-0.4,57,30.12,10.0,NW,15.0,24.2,N/A,,Clear,310,2013-03-20 20:34:00
3:53 PM,12.2,-0.4,57,30.11,7.0,NW,19.6,27.6,N/A,,Clear,320,2013-03-20 20:53:00
4:15 PM,12.2,-0.4,57,30.11,10.0,WNW,20.7,26.5,N/A,,Clear,300,2013-03-20 21:15:00
4:35 PM,10.4,-0.4,62,30.12,10.0,WNW,21.9,-,N/A,,Clear,300,2013-03-20 21:35:00
4:53 PM,10.4,-0.4,62,30.12,10.0,NW,18.4,23.0,N/A,,Clear,310,2013-03-20 21:53:00
5:15 PM,10.4,-0.4,62,30.12,10.0,WNW,13.8,23.0,N/A,,Clear,290,2013-03-20 22:15:00
5:35 PM,10.4,-0.4,62,30.12,10.0,NW,13.8,-,N/A,,Clear,310,2013-03-20 22:35:00
5:53 PM,10.4,-0.4,62,30.12,10.0,WNW,12.7,-,N/A,,Clear,300,2013-03-20 22:53:00
6:15 PM,10.4,-0.4,62,30.11,10.0,WNW,13.8,-,N/A,,Clear,300,2013-03-20 23:15:00
6:35 PM,8.6,-0.4,67,30.12,10.0,NW,15.0,-,N/A,,Clear,310,2013-03-20 23:35:00
6:53 PM,8.6,-2.2,62,30.11,10.0,NW,13.8,-,N/A,,Clear,310,2013-03-20 23:53:00
7:15 PM,8.6,-2.2,62,30.12,10.0,NW,9.2,-,N/A,,Clear,310,2013-03-21 00:15:00
7:35 PM,6.8,-2.2,67,30.12,10.0,WNW,10.4,-,N/A,,Clear,300,2013-03-21 00:35:00
7:52 PM,6.8,-2.2,67,30.12,10.0,NW,9.2,-,N/A,,Clear,310,2013-03-21 00:52:00
8:14 PM,6.8,-2.2,67,30.13,10.0,WNW,5.8,-,N/A,,Clear,300,2013-03-21 01:14:00
8:35 PM,3.2,-4.0,72,30.12,10.0,WNW,8.1,-,N/A,,Clear,300,2013-03-21 01:35:00
8:53 PM,3.2,-4.0,72,30.13,10.0,WNW,6.9,-,N/A,,Clear,290,2013-03-21 01:53:00
9:14 PM,3.2,-4.0,72,30.13,10.0,West,5.8,-,N/A,,Clear,280,2013-03-21 02:14:00
9:35 PM,3.2,-4.0,72,30.12,10.0,WNW,5.8,-,N/A,,Clear,290,2013-03-21 02:35:00
9:53 PM,3.2,-5.8,66,30.12,10.0,WNW,6.9,-,N/A,,Clear,300,2013-03-21 02:53:00
10:15 PM,1.4,-5.8,72,30.12,10.0,WNW,6.9,-,N/A,,Clear,300,2013-03-21 03:15:00
10:35 PM,-0.4,-5.8,78,30.12,10.0,NW,5.8,-,N/A,,Clear,320,2013-03-21 03:35:00
10:52 PM,1.4,-5.8,72,30.12,10.0,WNW,5.8,-,N/A,,Clear,290,2013-03-21 03:52:00
11:15 PM,-0.4,-5.8,78,30.12,10.0,WNW,6.9,-,N/A,,Clear,300,2013-03-21 04:15:00
11:35 PM,-0.4,-5.8,78,30.12,10.0,WNW,4.6,-,N/A,,Clear,290,2013-03-21 04:35:00
11:53 PM,-0.4,-5.8,78,30.12,10.0,WNW,4.6,-,N/A,,Clear,290,2013-03-21 04:53:00